STARLINK-5650, 55475

Orbit data source: Space-Track

STARLINK-5650, 55475 is a payload satellite owned by SpaceX/Seattle (US) in LEO that was launched on Thu, 02 Feb 2023 UTC via an FALCON 9 launch vehicle from the Air Force Eastern Test Range (AFETR). Payload-class satellites include a variety of spacecraft equipped with specific instruments for various scientific and technological missions. These include communications satellites like Starlink; space stations such as the ISS; scientific satellites like the Hubble; Earth observation satellites from companies like Planet Labs, Umbra, and HawkEye 360; GPS; miniature CubeSats for education and research; and military/defense satellites.

Loading next visibility...
Identifier
55475, 2023-015AC
Orbit
LEO
Country
Flag of USUS
Related business
Manufacturer
SpaceX/Seattle
Mission
Operational Commercial Communications
Bus & Motor
STARLINK, Unknown motor
Mass
305 kg wet, ~290 kg dry
Launch date (UTC)
2023-02-02 (3 years ago)
Launch vehicle
FALCON 9
Launch site
Air Force Eastern Test Range (AFETR)
Object type
Payload
Rocket body
Debris
Shape & HBR
Box + 1 Pan, 4.4 m
Radar Cross Section
13.562 m², Large (>1 m²)

Expand to show TLE details & history
Last TLE update: 20 hours ago

TLE from 20 hours ago
0 STARLINK-5650
1 55475U 23015AC  25258.55723155  .00000347  00000-0  40768-4 0  9995
2 55475  43.0033 197.2569 0001188 265.6814  94.3893 15.02537388144412
Epoch: 2025-09-15T13:22Z
TLE epoch observation values (Epoch: 2025-09-15T13:22:24.805Z)
Latitude
-0.00001°
Longitude
1.89336°
Altitude
558.917 km
Speed
7.584 km/s
True Right ascension
13h 09m 01s
True Declination
0° 00' 00"
Sunlit
Object was in daylight at epoch
Visualization orbit readout
Latitude
Unknown
Longitude
Unknown
Altitude
Unknown
Speed
Unknown
Apparent Right ascension
Unknown
Apparent Declination
Unknown
Sunlit
N/A
Visualization observer readout
Local Sidereal Time
02:23:54
Azimuth
Unknown
Elevation
Unknown
Doppler factor
Unknown
Orbital elements
Apogee altitude
561.823 km
Perigee altitude
560.174 km
Semi-major axis
6,939.136 km
Eccentricity
0.00012
Inclination
43.0033°
RAAN
197.2569°
Arg. of periapsis
265.6814°
True anomaly
94.40287°
Mean anomaly
94.3893°
Eccentric anomaly
94.39609°
Mean motion
3.75479 °/min
Orbital period
95.88 mins
BSTAR
0.000040768
Loading maneuver chart data...
Computing Atmospheric mass density...
Loading historical data...
Loading historical data...
Loading historical data...
Loading historical data...
Loading historical data...
Loading historical data...
Loading historical data...

Documentation

Showing up to 5 results
|